CW2099 Weather Reports


Display with metric or nautical units.
time (UTC)temp
F
wind
direction
speed
MPH
gust
MPH
rain 1hr
in
rain 24hr
in
rain mn
in
humidity
%
barometer
mb
20260906060054 60 286 0.0 0.0 0.00 0.00 0.00 82 1018.9
20260906054540 60 286 0.0 0.0 0.00 0.00 0.00 83 1018.6
20260906053038 60 286 0.0 0.0 0.00 0.00 0.00 82 1018.4
20260906050035 61 286 0.0 0.0 0.00 0.00 0.00 82 1018.2
20260906044535 61 286 0.0 0.0 0.00 0.00 0.00 81 1018.1
20260906043036 61 286 0.0 0.0 0.00 0.00 0.00 80 1018.1
20260906040030 62 286 0.0 0.0 0.00 0.00 0.00 80 1017.8
20260906034534 62 286 0.0 0.0 0.00 0.00 0.00 79 1017.7
20260906033032 62 286 0.0 0.0 0.00 0.00 0.00 79 1017.5
20260906030029 63 286 0.0 0.0 0.00 0.00 0.00 77 1017.5
20260906024528 63 286 0.0 0.0 0.00 0.00 0.00 77 1017.4
20260906023032 64 286 0.0 0.0 0.00 0.00 0.00 76 1017.4
20260906020030 64 286 0.0 0.0 0.00 0.00 0.00 75 1017.3
20260906014534 65 286 0.0 0.0 0.00 0.00 0.00 74 1017.1
20260906013028 65 286 0.0 0.0 0.00 0.00 0.00 73 1016.9
20260906010027 67 286 0.0 0.0 0.00 0.00 0.00 71 1016.8
20260906004527 68 286 0.0 0.0 0.00 0.00 0.00 70 1016.7
20260906003026 70 286 0.0 2.0 0.00 0.00 0.00 68 1016.6
20260906000026 71 286 0.0 1.0 0.00 0.00 0.00 64 1016.5
20260905234525 73 286 0.0 3.0 0.00 0.00 0.00 61 1016.4
20260905233024 73 286 3.0 4.0 0.00 0.00 0.00 59 1016.3
20260905230025 73 305 0.0 3.0 0.00 0.01 0.00 60 1016.3
20260905224525 74 305 0.0 2.0 0.00 0.01 0.00 59 1016.4
20260905223025 74 305 0.0 3.0 0.00 0.01 0.00 57 1016.4
20260905220023 74 287 0.0 2.0 0.00 0.01 0.00 58 1016.5
20260905214523 74 287 0.0 0.0 0.00 0.01 0.00 60 1016.6
20260905213031 74 287 0.0 1.0 0.00 0.01 0.00 58 1016.7
20260905210029 75 287 0.0 2.0 0.00 0.01 0.00 57 1016.5
20260905204523 75 287 0.0 0.0 0.00 0.01 0.00 57 1016.4
20260905203022 75 287 0.0 2.0 0.00 0.01 0.00 58 1016.7
20260905200020 74 281 1.0 3.0 0.00 0.02 0.00 58 1016.5
20260905194517 74 266 5.0 8.0 0.00 0.02 0.00 59 1016.6
20260905193017 74 275 0.0 4.0 0.00 0.02 0.00 61 1016.6
20260905190013 73 275 0.0 3.0 0.00 0.02 0.00 60 1016.7
20260905184512 73 269 5.0 8.0 0.00 0.02 0.00 61 1016.9
20260905183010 73 279 3.0 7.0 0.00 0.02 0.00 61 1016.9
20260905180007 72 273 1.0 8.0 0.00 0.02 0.00 61 1017.0
20260905174512 72 265 4.0 11.0 0.00 0.02 0.00 61 1017.1
20260905173008 71 270 3.0 8.0 0.00 0.02 0.00 64 1017.2
20260905170106 70 265 5.0 12.0 0.00 0.02 0.00 65 1017.4
20260905164556 70 296 4.0 8.0 0.00 0.02 0.00 66 1017.6
20260905163054 69 269 6.0 9.0 0.00 0.02 0.00 65 1017.6
20260905160050 68 267 6.0 10.0 0.00 0.02 0.00 69 1017.8
20260905154546 68 267 3.0 11.0 0.00 0.02 0.00 73 1017.6
20260905153044 67 277 4.0 9.0 0.00 0.02 0.00 74 1017.3
20260905150038 66 281 4.0 10.0 0.00 0.02 0.00 76 1017.0
20260905144541 65 265 2.0 7.0 0.00 0.02 0.00 78 1016.9
20260905143032 65 256 3.0 7.0 0.00 0.02 0.00 78 1017.0
20260905140029 63 267 4.0 8.0 0.00 0.02 0.00 80 1017.0
20260905134527 62 277 2.0 4.0 0.00 0.02 0.00 81 1017.5
20260905133024 62 267 2.0 7.0 0.00 0.02 0.00 82 1017.1
20260905130020 61 267 2.0 3.0 0.00 0.02 0.00 83 1016.7
20260905124535 61 269 2.0 4.0 0.00 0.02 0.00 83 1016.5
20260905123017 61 265 2.0 4.0 0.00 0.02 0.00 83 1016.2
20260905120013 61 266 0.0 3.0 0.00 0.02 0.00 84 1016.1
20260905114531 61 266 2.0 4.0 0.00 0.02 0.00 84 1015.7
20260905113012 62 265 1.0 3.0 0.00 0.02 0.00 84 1015.5
20260905110012 62 263 1.0 4.0 0.00 0.03 0.00 85 1015.6
20260905104511 62 266 1.0 4.0 0.00 0.03 0.00 85 1015.6
20260905103024 62 273 0.0 3.0 0.00 0.03 0.00 85 1015.6
20260905100010 62 273 0.0 3.0 0.00 0.04 0.00 85 1015.5
20260905094509 62 273 0.0 0.0 0.00 0.04 0.00 85 1015.6
20260905093009 62 273 0.0 3.0 0.00 0.04 0.00 85 1015.6
20260905090008 62 267 2.0 6.0 0.00 0.07 0.00 86 1015.5
20260905084525 62 284 1.0 6.0 0.00 0.07 0.00 86 1015.4
20260905083014 62 269 1.0 3.0 0.00 0.07 0.00 86 1015.5
20260905080006 61 267 3.0 6.0 0.00 0.07 0.00 86 1015.6
20260905074505 61 270 0.0 6.0 0.00 0.07 0.00 86 1015.7
20260905073011 62 259 1.0 4.0 0.00 0.07 0.00 86 1015.6
20260905070113 62 248 1.0 4.0 0.00 0.07 0.00 86 1015.4
20260905064559 63 267 2.0 8.0 0.00 0.07 0.00 86 1015.5
20260905063058 63 263 2.0 4.0 0.00 0.07 0.00 86 1015.2